Weather in Tatarskiy Sayman

Russia / Ulyanovsk Oblast     53°17′28″N   47°07′28″E
temp.,
°C
wind,
m/s
gust,
m/s
humid.,
%
clouds,
%
prec.,
mm/h
press.,
hPa
HPBL,
m
20 september, mon
mon2001:00+5e3857100 0.0 1025194
04:00+4e3960100 0.0 1025247
07:00+5ese41061100 0.0 1024368
10:00+7ese5952100 0.1 1024470
13:00+8ese6852100 0.2 1024867
16:00+10ese61046100 0.4 10221043
19:00+9e61048100 0.1 1022904
22:00+9e61146100 0.1 1022837
21 september, tue
tue2101:00+8ese61158100 0.3 1021818
04:00+7ese61265100 0.4 1020610
07:00+7ese61374100 0.3 1019570
10:00+6ese71489100 0.6 1019500
13:00+6e61392100 0.9 1018487
16:00+9ese7974100 0.9 1017692
19:00+8e5127276 0.0 1016376
22:00+7e51365100 0.0 1014344
22 september, wed
wed2201:00+6ese4982100 1.3 1013320
04:00+6e2495100 5.8 1012136
07:00+8ese249891 0.5 1012111
10:00+11sse2594100 0.7 1012382
13:00+14s3476100 0.5 1012646
16:00+14se3477100 1.8 1013417
19:00+11ese2290100 0.4 101446
22:00+9ese2296100 0.4 101622
23 september, thu
thu2301:00+10e239876 0.0 101671
04:00+10e3696100 0.0 1016154
07:00+9e3897100 0.6 1017273
10:00+12se5787100 0.8 1017427
13:00+13se5784100 0.0 1017522
16:00+11se61193100 0.5 1018694
19:00+11se61191100 0.7 1019707
22:00+9se4895100 0.8 1020444
24 september, fri
fri2401:00+8ese4994100 0.0 1019373
04:00+7e41093100 0.0 1019282
07:00+8ese51489100 0.0 1017441
10:00+11se61576100 0.0 1017836
13:00+8ese51194100 6.1 1016501
16:00+9e51085100 6.7 1015415
19:00+9ne3588100 1.4 1014111
22:00+9e3782100 1.5 1012154